EHI
0 0 0 0 0 0 0 0 0 0 0 0 0 0 0 0 0 0 0 0 0 0 0 0 0 0 0 0 0 0 0 0 0 0 0 0 0 0
0 0 0 0 0 0 0 0 0 0 0 0 0 0 0 0 0 0 0 0 0 0 0 0 0 0 0 0 0 0 0 0 0 0 0 0 0 0
0 0 0 0 0 0 0 0 0 0 0 0 0 0 0 0 0 0 0 0 0 0 0 0 0 0 0 0 0 0 0 0 0 0 0 0 0 0
0 0 0 0 0 0 0 0 0 0 0 0 0 0 0 0 0 0 0 0 0 0 0 0 0 0 0 0 0 0 0 0 0 0 0 0 0 0
0 0 0 0 0 0 0 0 0 0 0 0 0 0 0 0 0 0 0 0 0 0 0 0 0 0 0 0 0 0 0 0 0 0 0 0 0 0
0 0 0 0 0 0 0 0 0 0 0 0 0 0 0 0 0 0 0 0 0 0 0 0 0 0 0 0 0 0 0 0 0 0 0 0 0 0
0 0 0 0 0 0 0 0 0 0 0 0 0 0 0 0 0 0 0 0 0 0 0 0 0 0 0 0 0 0 0 0 0 0 0 0 0 0
0 0 0 0 0 0 0 0 0 0 0 0 0 0 0 0 0 0 0 0 0 0 0 0 0 0 0 0 0 0 0 0 0 0 0 0 0 0
0 0 0 0 0 0 0 0 0 0 0 0 0 0 0 0 0 0 0 0 0 0 0 0 0 0 0 0 0 0 0 0 0 0 0 0 0 0
0 0 0 0 0 0 0 0 0 0 0 0 0 0 0 0 0 0 0 0 0 0 0 0 0 0 0 0 0 0 0 0 0 0 0 0 0 0
0 0 0 0 0 0 0 0 0 0 0 0 0 0 0 0 0 0 0 0 0 0 0 0 0 0 0 0 0 0 0 0 0 0 0 0 0 0
0 0 0 0 0 0 0 0 0 0 0 0 0 0 0 0 0 0 0 0 0 0 0 0 0 0 0 0 0 0 0 0 0 0 0 0 0 0
0 0 0 0 0 0 0 0 0 0 0 0 0 0 0 0 0 0 0 0 0 0 0 0 0 0 0 0 0 0 0 0 0 0 0 0 0 0
0 0 0 0 0 0 0 0 0 0 0 0 0 0 0 0 0 0 0 0 0 0 0 0 0 0 0 0 0 0 0 0 0 0 0 0 0 0
0 0 0 0 0 0 0 0 0 0 0 0 0 0 0 0 0 0 0 0 0 0 0 0 0 0 0 0 0 0 0 0 0 0 0 0 0 0
0 0 0 0 0 0 0 0 0 0 0 0 0 0 0 0 0 0 0 0 0 0 0 0 0 0 0 0 0 0 0 0 0 0 0 0 0 0
0 0 0 0 0 0 0 0 0 0 0 0 0 0 0 0 0 0 0 0 0 0 0 0 0 0 0 0 0 0 0 0 0 0 0 0 0 0
0 0 0 0 0 0 0 0 0 0 0 0 0 0 0 0 0 0 0 0 0 0 0 0 0 0 0 0 0 0 0 0 0 0 0 0 0 0
0 0 0 0 0 0 0 0 0 0 0 0 0 0 0 0 0 0 0 0 0 0 0 0 0 0 0 0 0 0 0 0 0 0 0 0 0 0
0 0 0 0 0 0 0 0 0 0 0 0 0 0 0 0 0 0 0 0 0 0 0 0 0 0 0 0 0 0 0 0 0 0 0 0 0 0
0 0 0 0 0 0 0 0 0 0 0 0 0 0 0 0 0 0 0 0 0 0 0 0 0 0 0 0 0 0 0 0 0 0 0 0 0 0
0 0 0 0 0 0 0 0 0 0 0 0 0 0 0 0 0 0 0 0 0 0 0 0 0 0 0 0 0 0 0 0 0 0 0 0 0 0
0 0 0 0 0 0 0 0 0 0 0 0 0 0 0 0 0 0 0 0 0 0 0 0 0 0 0 0 0 0 0 0 0 0 0 0 0 0
Wind_Speed
4 4 3 3 3 3 3 5 5 3 3 3 2 2 1 1 2 1 1 3 4 4 3 3 4 4 4 5 5 5 5 6 6 6 6 7 8 8
4 4 3 2 2 2 3 3 3 4 3 2 2 2 1 1 2 0 1 3 3 3 3 3 3 4 4 5 5 5 5 6 6 6 7 8 8 7
4 5 4 4 3 3 3 3 3 3 3 2 1 1 1 1 1 0 0 1 1 3 3 3 4 4 4 4 5 5 5 6 6 7 7 8 8 8
5 5 4 4 4 4 3 4 3 3 4 3 1 1 1 2 1 0 1 1 1 3 4 4 4 4 4 4 4 5 5 6 7 7 7 7 8 8
5 6 5 5 4 4 4 4 3 2 2 3 3 1 1 1 0 1 1 1 2 2 3 4 5 5 4 4 5 5 6 7 7 7 7 7 9 9
4 5 5 6 6 5 4 5 4 3 3 3 3 2 1 1 1 1 1 1 1 2 3 3 4 5 5 5 6 6 6 7 7 7 7 8 9 9
4 4 4 5 7 5 4 5 5 4 4 3 3 2 2 2 2 2 1 1 1 1 2 2 2 2 3 5 6 6 7 7 7 7 7 8 9 9
4 3 3 4 5 6 7 7 7 7 6 5 4 5 4 3 2 2 2 1 2 1 1 2 1 2 2 2 5 7 7 7 7 7 8 8 9 8
4 4 3 3 4 3 5 5 5 7 7 6 6 6 5 5 4 4 3 3 3 2 1 2 1 2 2 3 6 6 7 7 7 7 7 8 8 8
4 4 4 4 4 4 4 3 2 2 3 3 4 5 4 4 5 4 4 2 1 1 1 2 1 2 3 2 5 6 7 7 7 7 8 8 8 8
3 3 4 4 6 6 4 4 3 1 1 2 3 3 3 4 4 3 3 2 1 1 1 1 1 2 2 2 3 6 7 7 7 7 8 8 8 7
2 2 4 4 6 6 4 5 4 3 2 2 1 1 0 1 3 3 4 4 2 2 1 1 1 0 2 2 2 2 3 6 7 7 8 8 8 4
2 2 2 5 5 6 5 4 5 4 3 3 2 1 1 0 1 1 1 3 3 2 2 2 1 1 1 2 3 2 2 2 3 4 6 8 9 6
3 2 2 5 5 5 4 5 6 3 3 2 2 1 1 1 1 0 1 1 1 2 2 3 2 2 2 2 3 2 2 2 2 3 3 6 7 9
2 3 3 3 2 2 3 4 3 3 3 2 2 1 1 1 1 0 0 0 0 1 1 2 3 3 3 3 3 2 2 2 2 2 3 3 4 4
2 2 2 2 2 1 1 1 1 2 2 2 2 1 1 1 1 1 1 0 0 1 1 1 2 3 3 4 4 4 3 3 2 3 3 4 3 3
3 2 2 2 2 2 1 1 1 1 2 2 2 2 1 1 1 1 1 1 1 1 2 1 1 2 3 3 3 4 3 3 3 3 3 4 4 4
3 2 2 2 1 1 1 1 1 1 1 1 1 2 1 1 1 0 1 1 1 1 2 1 1 1 2 2 5 4 3 3 3 3 3 3 5 4
3 2 2 1 1 1 1 1 1 1 1 1 2 2 1 1 1 1 1 1 1 2 2 1 1 1 2 3 3 4 3 3 2 3 3 3 5 5
2 1 1 1 1 1 1 1 1 1 1 1 1 1 2 1 2 2 2 2 2 2 2 2 2 3 4 3 3 3 5 4 3 4 4 3 4 7
1 1 1 1 1 1 1 2 2 1 2 2 2 2 2 2 2 2 2 3 2 2 3 3 4 4 2 1 2 4 3 5 6 4 3 3 4 3
0 0 0 1 1 1 1 2 2 2 2 2 2 2 2 2 2 3 2 2 2 3 3 3 2 1 1 3 4 4 4 4 5 8 8 6 3 3
0 0 0 1 1 1 1 2 2 2 2 2 2 2 2 2 2 2 3 3 2 3 2 2 2 2 2 3 3 4 5 5 3 4 5 8 10 12
Wind_Direction
184 182 186 190 178 169 161 161 160 184 229 237 243 255 248 228 247 265 279 278 278 283 293 307 318 321 320 320 321 322 322 318 318 313 316 320 316 318
181 179 191 186 175 171 171 169 165 166 200 224 229 244 236 246 246 281 276 292 291 283 286 294 297 305 308 308 309 310 310 312 315 310 311 315 315 317
185 185 196 179 176 180 174 168 168 155 184 233 251 228 199 211 265 316 275 283 296 300 301 289 286 291 299 299 301 303 308 309 308 305 305 311 313 308
191 185 194 182 183 184 181 182 182 175 170 198 224 208 224 215 210 254 307 303 279 290 305 303 303 304 303 299 302 306 305 305 305 304 302 306 311 307
189 188 192 180 192 191 188 188 184 182 174 178 200 198 204 205 180 308 317 325 304 289 299 302 308 311 312 316 315 312 310 306 304 301 303 306 309 306
194 194 193 188 194 192 193 193 177 170 166 170 184 192 197 198 170 196 290 318 305 312 300 300 311 322 324 322 320 318 313 307 303 300 304 307 309 306
196 200 198 197 199 198 195 186 175 174 173 175 188 196 201 189 200 197 219 284 288 273 299 304 319 332 330 321 319 315 311 309 307 309 310 310 311 307
195 196 202 203 206 214 217 205 190 183 184 186 200 203 212 209 200 196 196 211 264 259 238 287 289 295 302 298 304 310 313 313 311 312 312 311 312 310
190 185 196 204 204 197 216 217 213 216 209 198 196 206 205 201 192 199 202 209 235 228 185 273 275 282 290 297 301 312 317 316 314 315 316 316 314 311
191 189 188 187 192 185 174 172 183 212 222 212 206 210 204 192 194 198 192 193 255 240 176 251 268 275 293 298 297 309 319 321 318 317 318 320 321 318
187 183 182 180 195 193 168 164 169 193 228 218 221 222 214 202 184 155 166 170 218 237 216 219 253 285 291 284 294 313 324 323 318 317 322 325 325 324
173 182 198 194 198 197 173 167 180 191 168 145 140 139 160 204 221 205 191 189 195 229 217 188 216 297 303 291 293 312 319 318 319 320 321 321 323 329
178 181 196 207 213 213 203 182 193 179 149 147 143 132 117 154 237 225 204 199 200 222 202 180 202 220 234 284 294 291 297 307 311 312 315 317 320 327
179 183 194 214 223 224 209 193 194 169 135 140 150 168 178 209 244 235 201 224 218 221 208 184 198 205 218 260 273 281 285 288 297 303 310 314 318 320
165 185 194 204 219 207 196 199 178 142 144 154 171 191 193 194 178 135 115 129 61 301 231 201 206 212 219 235 253 261 282 287 286 290 300 307 307 311
135 152 155 129 108 97 118 99 105 144 158 160 164 166 155 160 174 176 185 184 1 321 307 252 228 219 233 238 239 255 249 259 280 289 294 295 293 290
132 113 110 110 115 107 97 97 109 128 144 152 160 166 172 179 209 199 191 196 219 266 304 315 291 253 236 230 244 250 253 261 265 277 286 291 288 285
115 114 120 123 137 145 142 136 140 155 158 165 172 176 182 192 201 221 201 184 208 242 259 275 327 343 335 283 231 242 251 255 268 270 264 271 284 288
108 122 133 137 139 137 142 159 186 179 166 179 180 180 187 195 199 207 217 216 230 247 254 246 237 212 247 274 278 233 232 259 270 271 258 249 268 283
104 126 143 151 157 162 169 181 189 177 177 185 178 180 187 197 207 216 222 226 240 248 259 250 229 223 225 242 266 277 254 249 252 265 272 270 270 283
113 136 147 157 163 174 180 188 193 197 195 192 194 195 196 197 214 223 230 246 249 242 252 255 249 266 257 230 270 273 268 259 258 256 261 276 285 291
87 121 158 180 185 189 194 194 194 196 197 202 204 205 208 207 215 221 224 234 244 250 261 273 284 277 216 225 251 269 283 291 283 282 268 248 238 250
172 219 238 233 213 204 199 201 204 209 209 209 212 212 210 214 220 222 226 230 238 248 258 266 267 250 241 235 250 267 276 284 288 289 279 277 273 275